TimeEDT,TemperatureF,Dew PointF,Humidity,Sea Level PressureIn,VisibilityMPH,Wind Direction,Wind SpeedMPH,Gust SpeedMPH,PrecipitationIn,Events,Conditions,WindDirDegrees,DateUTC
12:03 AM,73.4,69.8,88,29.87,10.0,South,6.9,-,N/A,,Partly Cloudy,180,2013-04-12 04:03:00
12:53 AM,73.0,69.1,87,29.88,10.0,South,6.9,-,N/A,,Mostly Cloudy,190,2013-04-12 04:53:00
1:53 AM,73.0,69.1,87,29.89,10.0,South,5.8,-,N/A,,Scattered Clouds,190,2013-04-12 05:53:00
2:53 AM,73.0,69.1,87,29.87,10.0,South,6.9,-,N/A,,Mostly Cloudy,190,2013-04-12 06:53:00
3:08 AM,73.4,69.8,88,29.87,10.0,South,6.9,-,N/A,,Mostly Cloudy,190,2013-04-12 07:08:00
3:16 AM,73.4,69.8,88,29.86,10.0,South,8.1,-,N/A,,Mostly Cloudy,190,2013-04-12 07:16:00
3:53 AM,73.0,69.1,87,29.85,10.0,South,5.8,-,N/A,,Mostly Cloudy,190,2013-04-12 07:53:00
4:13 AM,73.4,69.8,88,29.83,10.0,South,9.2,-,N/A,,Scattered Clouds,190,2013-04-12 08:13:00
4:31 AM,73.4,69.8,88,29.82,10.0,South,6.9,-,N/A,,Scattered Clouds,190,2013-04-12 08:31:00
4:39 AM,73.4,69.8,88,29.81,10.0,South,6.9,-,N/A,,Mostly Cloudy,170,2013-04-12 08:39:00
4:53 AM,73.9,70.0,87,29.81,10.0,South,9.2,-,N/A,,Mostly Cloudy,190,2013-04-12 08:53:00
5:25 AM,73.4,69.8,88,29.79,10.0,South,13.8,21.9,N/A,,Overcast,190,2013-04-12 09:25:00
5:53 AM,75.0,70.0,84,29.79,10.0,South,12.7,20.7,N/A,,Overcast,190,2013-04-12 09:53:00
6:53 AM,75.0,69.1,82,29.78,10.0,SSW,13.8,21.9,N/A,,Overcast,200,2013-04-12 10:53:00
7:01 AM,75.2,69.8,83,29.78,10.0,SSW,15.0,21.9,N/A,,Mostly Cloudy,200,2013-04-12 11:01:00
7:27 AM,75.2,69.8,83,29.79,10.0,SSW,11.5,19.6,N/A,,Scattered Clouds,210,2013-04-12 11:27:00
7:43 AM,75.2,69.8,83,29.80,10.0,SSW,11.5,-,N/A,,Mostly Cloudy,200,2013-04-12 11:43:00
7:53 AM,75.0,70.0,84,29.81,10.0,SSW,11.5,18.4,N/A,,Mostly Cloudy,210,2013-04-12 11:53:00
8:53 AM,77.0,70.0,79,29.81,10.0,SSW,16.1,21.9,N/A,,Overcast,210,2013-04-12 12:53:00
9:53 AM,79.0,70.0,74,29.82,10.0,SW,13.8,21.9,N/A,,Overcast,220,2013-04-12 13:53:00
10:53 AM,82.9,70.0,65,29.82,10.0,SW,19.6,29.9,N/A,,Mostly Cloudy,220,2013-04-12 14:53:00
11:14 AM,84.2,69.8,62,29.83,10.0,SSW,20.7,29.9,N/A,,Scattered Clouds,210,2013-04-12 15:14:00
11:53 AM,84.9,69.1,59,29.83,10.0,SW,17.3,27.6,N/A,,Partly Cloudy,230,2013-04-12 15:53:00
12:53 PM,88.0,68.0,51,29.82,10.0,SW,17.3,26.5,N/A,,Clear,230,2013-04-12 16:53:00
1:53 PM,89.1,66.0,46,29.81,10.0,WSW,23.0,31.1,N/A,,Clear,240,2013-04-12 17:53:00
2:53 PM,89.1,63.0,42,29.80,10.0,SW,21.9,31.1,N/A,,Clear,230,2013-04-12 18:53:00
3:53 PM,88.0,64.0,45,29.79,10.0,SW,19.6,33.4,N/A,,Partly Cloudy,220,2013-04-12 19:53:00
4:53 PM,86.0,64.9,49,29.79,10.0,SW,23.0,29.9,N/A,,Partly Cloudy,220,2013-04-12 20:53:00
5:53 PM,84.0,64.9,53,29.81,10.0,WSW,17.3,26.5,N/A,,Clear,240,2013-04-12 21:53:00
6:53 PM,81.0,63.0,54,29.82,10.0,WSW,17.3,26.5,N/A,,Clear,250,2013-04-12 22:53:00
7:53 PM,79.0,63.0,58,29.83,10.0,SW,6.9,-,N/A,,Clear,230,2013-04-12 23:53:00
8:53 PM,77.0,63.0,62,29.87,10.0,SSW,9.2,-,N/A,,Partly Cloudy,210,2013-04-13 00:53:00
9:53 PM,77.0,64.0,64,29.89,10.0,SW,6.9,-,N/A,,Overcast,220,2013-04-13 01:53:00
10:53 PM,75.9,64.0,67,29.88,10.0,Calm,Calm,-,N/A,,Scattered Clouds,0,2013-04-13 02:53:00
11:53 PM,75.0,64.0,69,29.88,10.0,SSW,3.5,-,N/A,,Overcast,200,2013-04-13 03:53:00